Temperature
12 12 12 12 12 12 12 12 12 11 11 11 11 11 11 11 11 11 11 11 11 11 11 11 11 10 10 10 10 10 10 10 10 10 10 10 10 10 10 10 10 10 10
11 12 12 12 12 11 11 11 11 11 11 11 11 11 11 11 11 11 11 11 11 10 10 10 10 10 10 10 10 10 10 10 10 10 10 10 10 10 10 9 9 9 9
11 11 11 11 11 11 11 11 11 10 10 10 10 10 10 10 10 10 10 10 10 10 10 10 10 10 9 9 9 9 9 9 9 9 9 9 9 9 9 9 9 9 9
10 11 11 11 11 11 10 10 10 10 10 10 10 10 10 10 10 10 10 10 10 10 10 10 10 9 9 9 9 9 9 9 9 9 9 9 9 9 8 8 8 8 8
10 10 10 10 10 10 10 10 10 10 9 9 9 9 9 9 9 9 10 10 10 10 10 10 9 9 9 9 9 9 8 8 8 8 8 8 8 8 8 8 8 8 7
10 10 10 10 10 9 9 9 9 9 9 9 9 9 9 9 9 9 9 9 9 9 9 9 9 9 9 9 9 8 8 8 8 8 8 7 7 7 7 7 7 7 7
9 9 9 9 9 9 9 9 9 9 9 9 9 8 8 8 8 8 9 9 9 9 9 9 9 9 9 8 8 8 8 8 7 7 7 7 7 6 6 6 6 6 6
9 9 9 9 9 9 9 9 9 8 8 8 8 8 8 8 8 8 8 8 8 8 8 8 8 8 8 8 8 8 7 7 7 7 7 6 6 6 6 6 5 6 6
8 8 9 8 8 8 8 8 8 8 8 8 8 8 8 8 8 8 8 8 8 8 8 8 8 8 8 8 8 7 7 7 7 6 6 6 6 5 5 5 5 5 5
8 8 8 8 8 8 8 8 8 8 8 8 8 8 8 8 8 7 7 7 7 7 7 7 8 8 7 7 7 7 7 7 6 6 6 5 5 5 5 5 5 4 4
8 8 8 8 8 8 8 8 8 8 8 8 8 8 8 8 8 8 7 7 7 7 7 7 7 7 7 7 7 6 6 6 6 6 5 5 5 5 4 4 4 4 4
7 7 7 7 7 7 8 8 8 7 7 7 7 7 7 8 8 8 8 7 7 7 7 6 6 6 6 6 6 6 6 6 6 5 5 5 5 5 4 4 4 4 4
7 7 7 7 7 7 7 7 7 7 7 7 7 7 7 7 7 7 7 7 6 6 6 6 6 6 6 6 6 5 5 5 5 5 5 5 4 4 4 4 4 4 3
7 7 7 7 7 7 7 7 7 7 7 7 7 7 7 7 7 7 7 7 6 6 6 6 6 6 5 5 5 5 5 5 5 5 4 4 4 4 4 4 3 3 3
7 7 7 7 7 6 6 6 6 7 6 6 6 6 6 6 6 6 6 6 6 6 5 5 5 5 5 5 5 5 4 4 4 4 4 4 4 4 3 3 3 3 3
6 6 6 6 6 6 6 6 6 6 6 6 6 6 6 6 6 6 6 6 6 5 5 5 5 5 4 4 4 4 4 4 4 4 4 3 3 3 3 3 2 2 2
6 6 6 6 6 6 6 6 6 6 6 6 6 6 6 6 5 5 5 5 5 5 5 4 4 4 4 4 4 4 4 4 4 3 3 3 3 3 2 2 2 2 2
5 5 5 5 5 5 5 5 5 5 5 5 5 5 5 5 5 5 5 5 5 4 4 4 4 4 4 4 3 3 3 3 3 3 3 3 2 2 2 2 2 1 1
5 5 5 5 5 5 5 5 5 5 5 5 5 5 5 5 5 5 4 4 4 4 4 4 3 3 3 3 3 3 3 3 3 3 2 2 2 2 1 1 1 1 1
5 5 5 5 5 5 5 5 5 4 4 4 4 4 4 4 4 4 4 4 4 3 3 3 3 3 2 2 2 3 2 2 2 2 2 2 1 1 1 1 1 0 0
4 4 4 4 4 4 4 4 4 4 4 4 4 4 4 4 4 4 3 3 3 3 3 3 2 2 2 2 2 2 2 2 2 1 1 1 1 1 1 0 0 -0 -0
4 4 4 4 4 4 4 4 4 3 3 3 3 3 3 3 3 3 3 3 3 3 2 2 2 2 2 2 1 1 1 1 1 1 0 1 0 0 0 -0 -0 -0 -1
3 3 3 3 3 3 3 3 3 3 3 3 3 3 3 3 3 2 2 2 2 2 2 2 2 2 1 1 1 0 0 -0 -0 -0 -1 -0 -0 -0 -0 -1 -1 -1 -1
3 3 3 3 3 3 3 2 2 2 2 2 2 2 2 2 2 2 2 2 2 2 1 1 1 1 1 0 0 -0 -1 -1 -1 -1 -1 -1 -1 -1 -1 -1 -1 -2 -2
2 2 2 2 2 2 2 2 2 2 2 2 2 2 2 2 1 1 1 1 1 1 1 1 1 0 0 -0 -0 -1 -1 -2 -2 -2 -2 -2 -2 -2 -2 -1 -2 -2 -2
2 1 2 2 1 1 1 1 1 1 1 1 1 1 1 1 1 1 1 1 1 1 0 0 0 -0 -0 -1 -1 -1 -2 -2 -3 -3 -2 -3 -3 -3 -3 -3 -2 -3 -3
Wind_Speed
3 3 4 5 5 7 7 7 7 8 8 8 7 7 7 7 8 8 7 7 7 8 9 10 10 11 12 13 12 12 11 12 11 11 11 11 11 11 11 10 10 10 10
4 4 4 4 5 6 7 7 7 7 6 6 6 6 6 7 7 7 7 6 7 7 8 9 10 11 11 11 11 11 11 10 11 11 10 10 10 10 10 10 10 10 9
5 5 4 3 4 6 8 8 7 7 5 5 4 5 6 6 6 6 7 7 6 6 7 7 9 10 10 11 11 10 10 10 10 9 9 9 9 9 9 9 9 9 9
6 5 4 3 5 7 7 5 4 4 3 4 3 3 4 5 5 5 6 6 7 6 6 6 7 9 9 10 9 9 9 8 8 8 8 8 7 7 7 7 7 7 8
5 5 4 5 7 6 5 4 3 3 4 4 4 3 3 3 3 4 5 5 6 6 6 6 6 7 8 9 8 8 8 7 7 7 6 6 6 5 5 5 5 6 6
6 5 4 5 6 4 3 4 4 3 3 4 5 4 3 3 3 3 2 3 5 5 6 6 7 7 7 7 7 7 7 7 6 5 5 4 4 4 4 4 4 4 5
6 5 3 4 4 3 4 5 4 4 3 3 3 3 3 3 2 2 2 2 3 4 6 6 6 7 6 5 6 6 5 6 5 4 4 3 3 2 2 3 3 4 5
5 6 5 4 4 3 4 4 4 3 2 2 3 3 1 1 1 1 1 1 1 2 4 5 6 6 6 5 4 4 4 4 4 3 3 2 2 1 1 2 3 4 4
5 5 6 5 4 4 5 4 5 5 4 2 1 3 4 4 1 1 1 0 1 1 2 3 4 5 5 5 4 3 3 3 3 3 2 2 1 0 1 2 3 3 4
5 5 6 6 5 4 4 5 4 3 5 3 1 1 1 3 3 1 1 1 0 1 2 2 3 4 5 4 4 3 3 3 3 3 2 1 1 1 2 2 3 4 4
4 5 5 5 5 4 5 4 4 4 4 4 4 2 2 2 2 3 2 1 0 1 1 2 3 4 4 4 4 4 4 3 4 3 3 2 2 2 3 3 4 5 5
2 3 5 5 5 4 5 5 4 5 4 4 3 3 3 3 3 3 3 2 2 1 1 1 3 4 5 5 4 4 4 4 4 4 3 3 3 3 4 4 5 6 6
3 4 4 4 4 4 5 5 4 4 4 5 5 3 3 3 3 3 4 3 2 1 1 1 3 4 4 5 5 5 5 4 4 4 4 4 4 4 4 5 6 6 7
4 4 4 4 4 4 4 4 3 4 4 4 5 4 3 3 3 3 4 4 2 1 1 2 1 4 4 5 4 5 5 5 5 5 5 5 4 4 5 5 6 6 7
2 3 4 4 4 5 5 5 4 4 4 4 5 5 3 3 3 3 3 4 5 3 4 3 2 2 4 4 5 4 4 5 5 5 5 4 5 5 5 6 6 7 8
3 4 4 4 5 5 5 5 4 4 5 4 4 5 4 2 3 3 3 3 3 4 3 3 3 2 3 3 4 5 5 5 6 6 5 5 6 6 6 6 7 8 9
3 4 5 5 5 5 5 5 5 5 5 4 4 5 5 4 3 3 3 3 3 3 3 2 1 2 2 3 2 4 5 5 6 6 6 7 7 7 7 7 7 8 9
3 3 3 4 4 4 5 6 6 6 6 6 5 5 5 4 5 4 4 4 4 4 4 4 2 2 3 3 2 2 3 4 5 6 7 7 7 7 7 7 8 9 10
2 2 3 4 4 4 5 5 6 6 6 6 6 6 6 6 6 4 4 4 4 4 4 4 3 2 2 1 1 1 2 3 4 5 6 7 8 8 8 9 10 10 11
2 2 3 3 3 4 4 5 5 5 5 5 5 6 7 7 7 7 5 5 5 5 4 4 3 3 2 2 2 2 2 2 2 4 6 7 8 9 10 10 10 11 11
2 2 2 2 2 3 4 5 5 5 5 5 4 5 5 7 8 8 6 6 6 6 5 4 4 3 3 3 3 3 3 2 2 3 2 4 6 7 8 10 11 12 12
1 1 2 2 2 3 4 6 5 4 5 5 5 4 4 6 8 10 9 9 9 8 7 6 5 5 5 5 4 3 3 1 3 2 2 4 4 4 7 9 11 12 13
0 1 1 2 3 3 4 5 6 4 4 4 5 4 4 4 6 5 6 7 8 10 10 7 7 7 6 6 5 4 4 4 4 3 2 4 3 5 7 10 12 13 13
1 1 2 2 2 2 4 5 5 3 3 4 4 5 5 4 5 5 5 4 4 6 7 6 7 7 7 6 6 6 5 4 2 2 3 4 3 4 5 8 12 13 13
1 1 1 2 2 2 3 4 4 3 2 3 3 4 5 5 7 7 5 4 4 4 6 8 8 8 8 9 8 4 3 2 3 3 3 3 2 3 4 4 8 10 11
1 1 1 1 2 2 3 4 4 2 2 2 2 3 5 6 7 7 5 5 5 5 4 3 4 5 5 6 8 6 5 4 3 3 3 3 2 1 3 2 3 5 8
Wind_Direction
137 126 119 120 121 125 125 121 119 116 113 108 106 105 98 100 103 100 96 106 120 128 130 130 130 126 122 118 114 109 105 102 100 97 93 88 84 81 76 73 69 65 62
148 138 130 122 123 126 129 127 127 122 118 114 108 105 100 95 100 103 101 101 107 119 129 136 138 133 126 121 115 110 108 106 103 99 94 88 85 81 77 73 68 64 59
150 144 135 127 129 127 124 117 114 110 111 110 107 104 99 94 93 98 103 101 100 104 119 135 140 137 131 125 121 115 112 108 106 102 97 92 86 81 76 70 64 58 54
146 142 138 137 137 129 125 119 115 106 105 109 103 93 91 91 89 95 98 101 101 99 105 120 132 139 137 132 130 125 120 115 110 105 101 95 88 81 75 68 61 55 48
150 146 146 144 141 131 126 130 117 118 122 113 100 76 65 75 76 93 92 95 102 104 104 106 113 128 135 137 136 133 130 123 116 110 104 96 90 81 71 63 54 46 38
148 143 142 144 142 134 129 128 125 111 123 126 102 76 50 48 59 66 87 93 99 106 110 109 108 113 124 136 138 138 139 135 127 120 112 102 91 78 64 53 43 34 28
150 144 145 145 146 149 149 142 125 122 124 132 106 81 40 41 51 44 59 86 96 110 115 116 114 109 107 119 134 141 143 141 137 133 124 112 96 78 55 41 26 20 22
164 161 152 160 160 145 143 147 133 129 134 150 135 126 109 12 353 38 61 139 131 115 120 126 122 119 113 110 112 129 143 146 148 145 135 119 99 67 35 13 8 10 8
181 173 166 163 167 163 169 169 160 149 158 177 164 151 156 191 204 356 353 115 132 144 147 136 132 130 131 126 123 130 139 159 169 162 153 144 131 348 334 340 341 339 348
188 182 173 169 170 169 173 178 172 163 155 169 171 127 132 140 151 161 325 342 87 189 190 170 153 147 145 144 151 156 162 172 185 186 184 201 239 282 303 316 325 330 334
196 187 180 174 176 176 178 176 169 172 170 173 171 155 128 104 127 149 185 230 310 258 202 187 175 166 163 162 169 173 179 189 201 210 212 227 252 269 290 305 312 314 319
205 199 189 185 185 182 183 184 178 180 185 177 175 168 163 160 174 160 172 190 214 250 226 190 188 182 179 180 184 188 194 200 215 225 232 239 255 270 284 292 297 304 308
215 213 202 194 192 190 183 177 179 186 188 185 184 187 184 178 158 155 154 165 190 235 237 219 204 191 187 189 195 192 202 211 221 234 246 252 259 269 280 288 292 297 301
214 203 196 196 194 189 186 180 184 193 190 194 193 185 185 188 173 170 164 157 165 214 232 233 210 196 193 191 200 197 206 214 227 240 252 262 270 274 275 280 288 293 298
210 199 195 194 192 190 189 184 192 193 187 192 190 183 183 188 179 177 171 170 166 189 222 219 210 197 190 194 203 204 213 218 226 239 252 265 270 271 273 274 282 287 292
194 198 199 197 196 197 193 189 190 185 182 190 184 178 182 185 176 166 167 170 168 176 203 212 211 191 177 187 205 210 217 225 225 237 248 257 263 266 267 273 277 283 287
193 200 202 199 197 197 194 190 193 183 183 185 182 181 188 178 178 169 164 168 172 165 195 227 193 170 172 186 209 218 226 231 234 239 249 255 260 263 263 267 273 279 282
203 204 200 197 198 196 192 191 193 190 187 191 193 189 196 184 181 178 178 182 184 179 181 204 203 196 200 196 201 219 235 234 246 245 249 254 257 259 262 267 273 276 279
201 201 194 199 200 195 194 197 192 193 196 198 197 199 202 190 193 186 184 190 189 183 175 181 200 196 200 185 187 223 241 246 258 251 250 253 255 259 266 272 274 274 274
190 202 208 208 202 195 196 197 193 198 201 203 204 205 203 197 197 188 189 191 183 174 170 178 192 199 204 189 173 203 245 235 260 265 251 254 258 264 268 270 271 271 270
189 192 196 203 197 198 203 199 196 198 199 202 207 209 210 203 200 195 192 188 182 180 179 185 196 194 199 191 203 195 222 256 263 238 238 255 261 263 267 267 271 270 270
186 175 188 196 203 219 211 205 196 194 195 198 208 211 211 204 206 207 207 201 194 188 189 191 200 204 213 205 194 191 199 209 267 233 214 262 249 249 259 260 264 270 272
191 198 208 202 216 222 207 205 199 191 194 201 204 202 208 207 202 196 206 209 213 213 204 193 197 208 207 201 188 196 203 212 234 229 218 264 244 252 259 260 267 271 272
240 240 239 226 220 227 211 207 202 192 193 203 203 202 204 201 200 190 184 194 215 218 212 206 206 207 206 197 192 201 209 222 244 236 207 245 248 254 269 262 265 269 271
266 256 245 234 232 248 226 208 190 181 196 211 210 206 203 204 208 198 185 196 218 227 222 218 220 221 220 215 199 178 184 206 254 248 205 220 247 269 273 264 261 267 274
253 263 273 248 230 243 240 216 192 184 199 215 221 218 214 214 214 208 196 196 220 229 206 207 216 223 220 218 212 201 193 209 232 250 213 204 229 282 293 266 257 266 278
Height
1511 1513 1515 1517 1519 1521 1522 1524 1526 1528 1530 1532 1534 1536 1538 1540 1542 1543 1544 1546 1547 1549 1550 1550 1551 1552 1553 1554 1555 1555 1556 1557 1557 1558 1558 1559 1559 1559 1559 1560 1560 1559 1559
1510 1512 1513 1515 1517 1519 1521 1523 1525 1526 1528 1530 1532 1535 1537 1539 1540 1542 1543 1545 1546 1548 1549 1550 1551 1552 1553 1554 1554 1555 1556 1556 1557 1557 1558 1558 1559 1559 1559 1559 1559 1559 1559
1508 1510 1512 1514 1516 1518 1520 1521 1523 1525 1527 1529 1531 1533 1535 1537 1539 1540 1542 1544 1545 1546 1548 1549 1550 1551 1552 1553 1554 1555 1555 1556 1556 1557 1557 1558 1558 1558 1558 1558 1558 1558 1558
1507 1508 1510 1512 1514 1516 1518 1520 1521 1523 1525 1527 1529 1531 1533 1535 1537 1539 1540 1542 1544 1545 1546 1548 1549 1550 1551 1552 1553 1554 1555 1555 1556 1556 1556 1557 1557 1557 1557 1557 1557 1557 1557
1504 1506 1509 1511 1512 1514 1516 1518 1519 1522 1524 1526 1528 1530 1531 1533 1535 1537 1538 1540 1542 1543 1545 1546 1548 1549 1550 1551 1552 1553 1553 1554 1555 1555 1555 1556 1556 1556 1556 1556 1556 1555 1555
1502 1504 1506 1509 1510 1512 1514 1516 1518 1520 1522 1524 1526 1528 1530 1531 1533 1534 1536 1538 1539 1541 1543 1544 1546 1547 1548 1549 1550 1551 1552 1552 1553 1553 1554 1554 1554 1554 1555 1554 1554 1554 1553
1500 1502 1504 1506 1508 1510 1512 1514 1516 1517 1519 1522 1524 1525 1527 1529 1530 1532 1534 1535 1537 1539 1540 1542 1544 1545 1546 1547 1548 1549 1550 1551 1551 1552 1552 1552 1553 1553 1553 1553 1553 1552 1552
1497 1499 1501 1503 1506 1508 1510 1512 1514 1515 1517 1519 1521 1523 1525 1528 1528 1529 1531 1532 1534 1536 1537 1539 1541 1542 1544 1545 1546 1547 1548 1549 1549 1550 1550 1550 1551 1551 1551 1551 1551 1550 1550
1495 1496 1499 1501 1503 1505 1507 1509 1511 1513 1514 1517 1519 1520 1521 1522 1525 1527 1528 1530 1531 1533 1534 1536 1537 1539 1541 1542 1543 1544 1545 1546 1547 1547 1548 1548 1548 1548 1548 1548 1548 1548 1547
1492 1494 1496 1498 1500 1502 1505 1506 1508 1510 1512 1514 1516 1518 1519 1520 1522 1523 1526 1527 1528 1530 1531 1533 1534 1536 1538 1539 1540 1541 1542 1543 1544 1544 1545 1545 1545 1545 1545 1545 1545 1545 1544
1489 1491 1493 1495 1497 1499 1501 1503 1505 1507 1509 1511 1513 1515 1516 1518 1519 1520 1522 1524 1526 1527 1528 1529 1531 1532 1534 1536 1537 1538 1539 1540 1541 1541 1541 1542 1542 1542 1542 1542 1542 1541 1541
1486 1488 1490 1492 1494 1496 1498 1500 1502 1504 1506 1508 1509 1511 1513 1515 1516 1517 1518 1520 1522 1524 1525 1526 1528 1529 1531 1532 1534 1535 1536 1536 1537 1538 1538 1538 1539 1539 1538 1538 1538 1538 1537
1482 1484 1486 1488 1490 1492 1494 1496 1498 1500 1502 1504 1506 1508 1510 1511 1513 1514 1516 1517 1519 1520 1521 1522 1524 1525 1527 1528 1529 1531 1532 1533 1533 1534 1534 1535 1535 1535 1534 1534 1534 1533 1533
1479 1481 1483 1485 1487 1488 1490 1492 1494 1496 1498 1500 1502 1504 1506 1508 1509 1511 1512 1514 1515 1516 1517 1518 1520 1522 1523 1524 1525 1527 1527 1529 1530 1530 1531 1531 1531 1531 1530 1530 1530 1529 1528
1476 1478 1479 1481 1483 1485 1486 1488 1490 1492 1494 1496 1498 1500 1502 1504 1505 1507 1508 1510 1512 1511 1513 1514 1516 1517 1519 1520 1522 1523 1523 1525 1525 1526 1526 1527 1527 1526 1526 1526 1525 1525 1524
1473 1474 1476 1477 1479 1481 1483 1485 1486 1488 1490 1492 1494 1495 1497 1499 1501 1502 1504 1505 1506 1508 1508 1509 1511 1513 1515 1516 1517 1518 1519 1520 1521 1522 1522 1522 1522 1522 1521 1521 1520 1520 1519
1469 1471 1472 1474 1475 1477 1479 1480 1482 1484 1486 1488 1490 1491 1493 1495 1497 1498 1500 1501 1502 1503 1504 1505 1507 1509 1510 1512 1513 1514 1515 1515 1516 1517 1517 1517 1517 1517 1516 1516 1515 1515 1514
1466 1467 1469 1470 1472 1473 1475 1477 1478 1480 1482 1484 1486 1487 1489 1491 1492 1493 1495 1496 1497 1499 1500 1500 1503 1504 1506 1507 1508 1509 1510 1511 1511 1511 1512 1512 1512 1511 1511 1510 1510 1509 1508
1463 1464 1465 1466 1468 1469 1471 1473 1475 1476 1478 1480 1482 1483 1485 1486 1487 1488 1490 1491 1493 1494 1495 1496 1497 1499 1501 1502 1504 1505 1505 1506 1506 1506 1506 1506 1506 1506 1505 1505 1504 1503 1502
1459 1460 1462 1463 1464 1465 1467 1468 1470 1472 1474 1475 1477 1478 1480 1481 1483 1484 1485 1487 1488 1489 1490 1491 1493 1494 1496 1497 1498 1499 1500 1500 1500 1501 1501 1500 1500 1500 1500 1499 1498 1497 1496
1456 1457 1458 1459 1460 1461 1463 1464 1466 1468 1469 1471 1472 1474 1475 1476 1478 1480 1481 1482 1483 1484 1485 1486 1488 1489 1490 1491 1492 1493 1493 1494 1494 1495 1495 1494 1494 1494 1493 1493 1492 1491 1490
1453 1454 1455 1456 1457 1458 1459 1461 1462 1463 1465 1466 1467 1468 1470 1471 1473 1474 1476 1477 1478 1479 1480 1481 1482 1483 1484 1486 1487 1487 1488 1488 1488 1489 1488 1487 1488 1487 1487 1486 1485 1484 1483
1450 1451 1451 1452 1453 1454 1456 1457 1458 1459 1460 1461 1462 1464 1465 1466 1468 1469 1470 1472 1473 1474 1475 1476 1477 1478 1479 1481 1481 1482 1482 1482 1482 1483 1482 1480 1481 1480 1480 1479 1479 1478 1477
1447 1448 1448 1449 1450 1451 1452 1453 1454 1455 1456 1457 1458 1459 1461 1462 1463 1464 1465 1466 1467 1469 1470 1471 1472 1473 1474 1475 1476 1476 1476 1476 1476 1477 1476 1474 1473 1473 1473 1472 1472 1472 1471
1444 1445 1445 1446 1446 1447 1449 1449 1450 1451 1451 1452 1454 1455 1456 1457 1459 1460 1461 1461 1462 1463 1464 1465 1466 1467 1468 1469 1470 1470 1470 1470 1469 1469 1470 1469 1467 1466 1465 1465 1465 1465 1464
1441 1441 1442 1442 1443 1444 1445 1445 1446 1446 1447 1448 1449 1450 1452 1453 1454 1455 1455 1456 1456 1458 1459 1460 1461 1461 1462 1464 1464 1465 1465 1464 1463 1463 1463 1463 1462 1461 1458 1457 1458 1458 1457